Regional Weather Roundup
Issued by NWS

Home | Current Version | Previous Version | Graphics & Text | Print | Product List | Glossary On
Versions: 1 2 3 4 5 6 7 8 9 10 11 12 13 14 15 16 17 18 19 20 21 22 23 24 25 26 27 28 29 30 31 32 33 34 35 36 37 38 39 40 41 42 43 44 45 46 47 48 49 50
477
ASUS43 KFSD 231202
RWRSD

WEATHER ROUNDUP FOR SOUTH DAKOTA
NATIONAL WEATHER SERVICE SIOUX FALLS SD
600 AM CST TUE JAN 23 2018

NOTE: "FAIR" INDICATES FEW OR NO CLOUDS BELOW 12,000 FEET WITH NO
SIGNIFICANT WEATHER AND/OR OBSTRUCTIONS TO VISIBILITY.


SDZ001>005-009-010-012>017-231300-
NORTHWEST AND NORTH CENTRAL SOUTH DAKOTA

CITY           SKY/WX    TMP DP  RH WIND       PRES   REMARKS
BUFFALO          N/A     30  22  72 W16       29.98R WCI  19
FAITH            N/A     30  25  81 W15       30.04R WCI  19
MOBRIDGE       FOG       18  15  88 S5        30.01S VSB 1/4 WCI  11
$$

SDZ012>016-024>037-041>051-057-063-072>074-231300-
SOUTHWEST AND SOUTH CENTRAL SOUTH DAKOTA

CITY           SKY/WX    TMP DP  RH WIND       PRES   REMARKS
RAPID CTY ARPT CLOUDY    30  24  78 CALM      30.07S
PIERRE         FOG       18  18 100 SW3       30.06S VSB 1/2
CUSTER         MOCLDY    24  15  68 NW8       30.02R WCI  15
ELLSWORTH AFB  CLOUDY    31  26  80 SW6       30.06R WCI  26
PHILIP         CLOUDY    29  27  92 W7        30.07R WCI  22
PINE RIDGE     CLOUDY    24  20  84 SW3       30.11R
SPEARFISH        N/A     32  21  64 W12G20    30.07R WCI  23
WINNER         FAIR      15  11  83 W10       30.07R WCI   2
$$

SDZ004>011-016>023-039-040-231300-
NORTHEAST SOUTH DAKOTA

CITY           SKY/WX    TMP DP  RH WIND       PRES   REMARKS
ABERDEEN       CLOUDY    19  18  95 W6        30.07S WCI  11
WATERTOWN      CLOUDY    19  18  95 N9        30.02S FOG     WCI   8
BROOKINGS      CLOUDY    19  18  95 NW12      30.03R WCI   7
SISSETON         N/A     21  18  88 NW10      30.05S WCI  10
$$

SDZ017-020-022-023-036>040-048>070-231300-
SOUTHEAST SOUTH DAKOTA

CITY           SKY/WX    TMP DP  RH WIND       PRES   REMARKS
SIOUX FALLS    CLOUDY    22  21  96 N10       30.04R WCI  11
HURON          CLOUDY    20  19  96 NW8       30.08S FOG     WCI  10
CHAMBERLAIN    CLOUDY    22  22 100 W5        30.07S FOG     WCI  16
MITCHELL       CLOUDY    21  20  96 NW12      30.09S WCI   9
YANKTON        LGT SNOW  20  18  92 NW18      30.08R FOG     WCI   5
$$

ABBREVIATIONS USED IN REMARKS
   TC - TEMPERATURE IN CELSIUS
  WCI - WIND CHILL INDEX
   HX - HEAT INDEX
  VSB - VISIBILITY





USA.gov is the U.S. government's official web portal to all federal, state and local government web resources and services.